Tracking 19193 objects as of 22-Jun-2018
HD Live streaming from Space Station
objects crossing your sky now

GAOFEN 1-02

Track GAOFEN 1-02 now!
10-day predictions


NORAD ID: 43259
Int'l Code: 2018-031A
Perigee: 644.3 km
Apogee: 651.3 km
Inclination: 98.0 °
Period: 97.5 minutes
Semi major axis: 7018 km
RCS: Unknown
Launch date: March 31, 2018
Source: People's Republic of China (PRC)
Launch site: Taiyaun Space Center, China (TSC)
aabbcc
Your satellite tracking list
Your tracking list is empty




NASA's NSSDC Master Catalog

Two Line Element Set (TLE):
1 43259U 18031A   18172.86891495  .00000069  00000-0  17327-4 0  9994
2 43259  98.0305 248.2883 0005007  25.9090 334.2353 14.76411387 12213
Source of the keplerian elements: AFSPC